{"data":{"norad_id":68286,"intl_designator":"2026-055AA","name":"STARLINK-36998","alt_names":[],"object_type":"PAYLOAD","status":"ACTIVE","operator":null,"country":"US","launch_date":"2026-03-19","launch_site_code":"AFETR","launch_vehicle":null,"mission":null,"orbit_class":"UNKNOWN","rcs_meters":null,"size_class":null,"mass_kg":null,"dimensions":null,"purposes":["comms"],"wikipedia_slug":null,"has_3d_model":false,"image_url":null,"decayed_at":null,"tle_current":{"epoch":"2026-09-20T00:58:29.312256Z","epoch_age_seconds":91517,"freshness":"FRESH","line1":"1 68286U 26055AA  26263.04061704  .00017903  00000+0  53978-3 0  9993","line2":"2 68286  53.1588 131.7706 0001055  80.0674 280.0448 15.34398224 29764","mean_motion":15.34398224,"eccentricity":0.0001055,"inclination_deg":53.1588,"raan_deg":131.7706,"arg_perigee_deg":80.0674,"mean_anomaly_deg":280.0448,"bstar":0.00053978,"rev_number":2976,"period_min":93.847866706081,"perigee_km":461.98680965623,"apogee_km":463.43022806071,"semimajor_km":6840.8455188585,"source":"CELESTRAK","updated_at":"2026-09-20T09:00:43.851448Z"}}}